timestamp,surface_pressure_avg,surface_temp_avg,battery_voltage,lat,long
2018-05-17 00:00:00+00:00,396.4229,4.76,13.21,47.84626,-54.09684
2018-05-17 00:10:00+00:00,396.9279,5.02,13.13,47.84626,-54.09684
2018-05-17 00:20:00+00:00,395.0062,4.7,13.13,47.84626,-54.09684
2018-05-17 00:30:00+00:00,400.0963,4.7,13.13,47.84626,-54.09684
2018-05-17 00:40:00+00:00,405.8862,4.7,13.13,47.84626,-54.09684
2018-05-17 00:50:00+00:00,411.1512,4.8,13.13,47.84626,-54.09684
2018-05-17 01:00:00+00:00,407.9246,4.8,13.05,47.84626,-54.09684
2018-05-17 01:10:00+00:00,397.9412,4.83,13.05,47.84626,-54.09684
2018-05-17 01:20:00+00:00,394.9895,4.8,13.05,47.84626,-54.09684
2018-05-17 01:30:00+00:00,393.2745,4.75,13.05,47.84626,-54.09684
2018-05-17 01:40:00+00:00,386.303,4.9,13.13,47.84626,-54.09684
2018-05-17 01:50:00+00:00,389.0746,4.98,13.13,47.84626,-54.09684
2018-05-17 02:00:00+00:00,385.7279,5.14,13.05,47.84626,-54.09684
2018-05-17 02:10:00+00:00,374.1262,5.19,12.97,47.84626,-54.09684
2018-05-17 02:20:00+00:00,367.1013,5.2,13.05,47.84626,-54.09684
2018-05-17 02:30:00+00:00,371.3713,5.1,13.05,47.84626,-54.09684
2018-05-17 02:40:00+00:00,363.8329,5.71,13.05,47.84626,-54.09684
2018-05-17 02:50:00+00:00,344.4846,6.43,13.05,47.84626,-54.09684
2018-05-17 03:00:00+00:00,335.268,4.98,13.05,47.84626,-54.09684
2018-05-17 03:10:00+00:00,332.0797,4.7,12.97,47.84626,-54.09684
2018-05-17 03:20:00+00:00,319.6263,4.77,12.97,47.84626,-54.09684
2018-05-17 03:30:00+00:00,301.6847,5.19,13.05,47.84626,-54.09684
2018-05-17 03:40:00+00:00,297.7581,5.04,13.05,47.84626,-54.09684
2018-05-17 03:50:00+00:00,288.1514,5.03,13.05,47.84626,-54.09684
2018-05-17 04:00:00+00:00,267.9314,5.59,12.97,47.84626,-54.09684
2018-05-17 04:10:00+00:00,256.8031,5.7,12.89,47.84626,-54.09684
2018-05-17 04:20:00+00:00,256.3631,5.59,12.97,47.84626,-54.09684
2018-05-17 04:30:00+00:00,246.0881,5.6,12.97,47.84626,-54.09684
2018-05-17 04:40:00+00:00,230.0381,5.82,12.97,47.84626,-54.09684
2018-05-17 04:50:00+00:00,223.0314,5.96,13.05,47.84626,-54.09684
2018-05-17 05:00:00+00:00,215.3631,5.98,12.97,47.84626,-54.09684
2018-05-17 05:10:00+00:00,202.8081,5.92,12.89,47.84626,-54.09684
2018-05-17 05:20:00+00:00,191.2898,6.0,12.97,47.84626,-54.09684
2018-05-17 05:30:00+00:00,188.5265,6.1,12.97,47.84626,-54.09684
2018-05-17 05:40:00+00:00,185.5331,6.1,12.97,47.84626,-54.09684
2018-05-17 05:50:00+00:00,181.3798,5.8,12.97,47.84626,-54.09684
2018-05-17 06:00:00+00:00,179.7598,5.57,12.89,47.84626,-54.09684
2018-05-17 06:10:00+00:00,173.4148,5.82,12.89,47.84626,-54.09684
2018-05-17 06:20:00+00:00,173.7432,5.9,12.97,47.84626,-54.09684
2018-05-17 06:30:00+00:00,176.6632,5.77,12.97,47.84626,-54.09684
2018-05-17 06:40:00+00:00,175.2031,5.79,12.97,47.84626,-54.09684
2018-05-17 06:50:00+00:00,177.4898,5.8,12.97,47.84626,-54.09684
2018-05-17 07:00:00+00:00,180.2115,5.7,12.89,47.84626,-54.09684
2018-05-17 07:10:00+00:00,179.8598,5.78,12.81,47.84626,-54.09684
2018-05-17 07:20:00+00:00,182.5948,5.8,12.89,47.84626,-54.09684
2018-05-17 07:30:00+00:00,188.8998,5.68,12.89,47.84626,-54.09684
2018-05-17 07:40:00+00:00,191.7248,5.71,12.97,47.84626,-54.09684
2018-05-17 07:50:00+00:00,192.8282,5.7,12.97,47.84626,-54.09684
2018-05-17 08:00:00+00:00,197.7165,5.5,12.89,47.84626,-54.09684
2018-05-17 08:10:00+00:00,205.3498,5.76,12.81,47.84626,-54.09684
2018-05-17 08:20:00+00:00,210.3981,5.8,12.89,47.84626,-54.09684
2018-05-17 08:30:00+00:00,209.3265,5.77,12.89,47.84626,-54.09684
2018-05-17 08:40:00+00:00,205.4798,5.99,12.97,47.84626,-54.09684
2018-05-17 08:50:00+00:00,209.7848,5.8,12.97,47.84626,-54.09684
2018-05-17 09:00:00+00:00,219.2731,5.4,12.89,47.84626,-54.09684
2018-05-17 09:10:00+00:00,224.5464,5.3,12.81,47.84626,-54.09684
2018-05-17 09:20:00+00:00,233.0847,5.26,13.05,47.84626,-54.09684
2018-05-17 09:30:00+00:00,239.0064,5.2,13.21,47.84626,-54.09684
2018-05-17 09:40:00+00:00,237.4731,5.0,13.37,47.84626,-54.09684
2018-05-17 09:50:00+00:00,242.4014,5.0,13.68,47.84626,-54.09684
2018-05-17 10:00:00+00:00,250.5631,5.0,14.0,47.84626,-54.09684
2018-05-17 10:10:00+00:00,256.7798,5.0,14.08,47.84626,-54.09684
2018-05-17 10:20:00+00:00,263.4664,4.9,14.88,47.84626,-54.09684
2018-05-17 10:30:00+00:00,273.6648,4.99,15.11,47.84626,-54.09684
2018-05-17 10:40:00+00:00,282.5847,5.0,16.07,47.84626,-54.09684
2018-05-17 10:50:00+00:00,291.5731,4.9,16.15,47.84626,-54.09684
2018-05-17 11:00:00+00:00,301.258,4.84,14.88,47.84626,-54.09684
2018-05-17 11:10:00+00:00,306.7213,4.9,14.64,47.84626,-54.09684
2018-05-17 11:20:00+00:00,310.7081,4.8,15.83,47.84626,-54.09684
2018-05-17 11:30:00+00:00,323.7463,4.7,15.11,47.84626,-54.09684
2018-05-17 11:40:00+00:00,337.4979,4.6,15.27,47.84626,-54.09684
2018-05-17 11:50:00+00:00,339.973,4.6,15.11,47.84626,-54.09684
2018-05-17 12:00:00+00:00,341.9579,4.77,14.72,47.84626,-54.09684
2018-05-17 12:10:00+00:00,348.6746,4.6,14.64,47.84626,-54.09684
2018-05-17 12:20:00+00:00,359.7913,4.57,15.2,47.84626,-54.09684
2018-05-17 12:30:00+00:00,360.0596,4.59,14.88,47.84626,-54.09684
2018-05-17 12:40:00+00:00,357.9096,4.6,15.04,47.84626,-54.09684
2018-05-17 12:50:00+00:00,361.5197,4.62,14.96,47.84626,-54.09684
2018-05-17 13:00:00+00:00,358.9713,4.64,14.72,47.84626,-54.09684
2018-05-17 13:10:00+00:00,356.2012,4.64,14.64,47.84626,-54.09684
2018-05-17 13:20:00+00:00,360.668,4.6,15.11,47.84626,-54.09684
2018-05-17 13:30:00+00:00,356.7729,4.6,14.88,47.84626,-54.09684
2018-05-17 13:40:00+00:00,351.3263,4.6,14.96,47.84626,-54.09684
2018-05-17 13:50:00+00:00,353.3596,4.56,14.72,47.84626,-54.09684
2018-05-17 14:00:00+00:00,353.5845,4.5,14.64,47.84626,-54.09684
2018-05-17 14:10:00+00:00,346.4513,4.5,14.56,47.84626,-54.09684
2018-05-17 14:20:00+00:00,343.1963,4.52,14.72,47.84626,-54.09684
2018-05-17 14:30:00+00:00,337.363,4.58,14.64,47.84626,-54.09684
2018-05-17 14:40:00+00:00,327.8613,4.6,14.64,47.84626,-54.09684
2018-05-17 14:50:00+00:00,321.8363,4.6,14.72,47.84626,-54.09684
2018-05-17 15:00:00+00:00,322.5112,4.6,14.64,47.84626,-54.09684
2018-05-17 15:10:00+00:00,312.498,4.68,14.56,47.84626,-54.09684
2018-05-17 15:20:00+00:00,298.8831,4.7,14.72,47.84626,-54.09684
2018-05-17 15:30:00+00:00,294.9547,4.7,14.64,47.84626,-54.09684
2018-05-17 15:40:00+00:00,293.7147,4.7,14.56,47.84626,-54.09684
2018-05-17 15:50:00+00:00,280.9614,4.7,14.64,47.84626,-54.09684
2018-05-17 16:00:00+00:00,263.7231,4.76,14.48,47.84626,-54.09684
2018-05-17 16:10:00+00:00,255.1947,4.79,14.48,47.84626,-54.09684
2018-05-17 16:20:00+00:00,244.5514,4.8,14.64,47.84626,-54.09684
2018-05-17 16:30:00+00:00,231.4664,4.97,14.48,47.84626,-54.09684
2018-05-17 16:40:00+00:00,222.9398,5.37,14.48,47.84626,-54.09684
2018-05-17 16:50:00+00:00,216.1231,5.57,14.4,47.84626,-54.09684
2018-05-17 17:00:00+00:00,205.6298,5.59,14.4,47.84626,-54.09684
2018-05-17 17:10:00+00:00,197.6931,5.6,14.32,47.84626,-54.09684
2018-05-17 17:20:00+00:00,195.8781,5.8,14.4,47.84626,-54.09684
2018-05-17 17:30:00+00:00,188.3282,5.98,14.32,47.84626,-54.09684
2018-05-17 17:40:00+00:00,180.5531,6.0,14.4,47.84626,-54.09684
2018-05-17 17:50:00+00:00,177.1432,6.05,14.32,47.84626,-54.09684
2018-05-17 18:00:00+00:00,172.7065,6.09,14.24,47.84626,-54.09684
2018-05-17 18:10:00+00:00,171.1781,6.1,14.16,47.84626,-54.09684
2018-05-17 18:20:00+00:00,175.1482,6.1,14.24,47.84626,-54.09684
2018-05-17 18:30:00+00:00,175.6248,6.17,14.24,47.84626,-54.09684
2018-05-17 18:40:00+00:00,172.0115,6.21,14.24,47.84626,-54.09684
2018-05-17 18:50:00+00:00,174.4498,6.25,14.32,47.84626,-54.09684
2018-05-17 19:00:00+00:00,179.1732,6.28,14.24,47.84626,-54.09684
2018-05-17 19:10:00+00:00,182.1615,6.3,14.08,47.84626,-54.09684
2018-05-17 19:20:00+00:00,184.8681,6.3,14.16,47.84626,-54.09684
2018-05-17 19:30:00+00:00,185.7381,6.3,14.16,47.84626,-54.09684
2018-05-17 19:40:00+00:00,188.7781,6.35,14.16,47.84626,-54.09684
2018-05-17 19:50:00+00:00,192.3965,6.3,14.08,47.84626,-54.09684
2018-05-17 20:00:00+00:00,194.3898,6.3,14.0,47.84626,-54.09684
2018-05-17 20:10:00+00:00,197.2881,6.34,13.84,47.84626,-54.09684
2018-05-17 20:20:00+00:00,204.1531,6.3,13.84,47.84626,-54.09684
2018-05-17 20:30:00+00:00,208.9898,6.3,13.84,47.84626,-54.09684
2018-05-17 20:40:00+00:00,213.6114,6.3,13.76,47.84626,-54.09684
2018-05-17 20:50:00+00:00,218.3381,6.3,13.76,47.84626,-54.09684
2018-05-17 21:00:00+00:00,222.2681,6.3,13.68,47.84626,-54.09684
2018-05-17 21:10:00+00:00,227.3081,6.3,13.53,47.84626,-54.09684
2018-05-17 21:20:00+00:00,235.9647,6.3,13.53,47.84626,-54.09684
2018-05-17 21:30:00+00:00,243.3014,6.3,13.53,47.84626,-54.09684
2018-05-17 21:40:00+00:00,250.2047,6.3,13.44,47.84626,-54.09684
2018-05-17 21:50:00+00:00,259.8931,6.3,13.44,47.84626,-54.09684
2018-05-17 22:00:00+00:00,269.0914,6.3,13.37,47.84626,-54.09684
2018-05-17 22:10:00+00:00,269.0064,6.3,13.29,47.84626,-54.09684
2018-05-17 22:20:00+00:00,269.4064,6.3,13.29,47.84626,-54.09684
2018-05-17 22:30:00+00:00,280.238,6.29,13.21,47.84626,-54.09684
2018-05-17 22:40:00+00:00,293.0247,6.29,13.21,47.84626,-54.09684
2018-05-17 22:50:00+00:00,298.2064,6.29,13.21,47.84626,-54.09684
2018-05-17 23:00:00+00:00,304.798,6.29,13.21,47.84626,-54.09684
2018-05-17 23:10:00+00:00,317.158,6.29,13.05,47.84626,-54.09684
2018-05-17 23:20:00+00:00,324.8697,6.29,13.13,47.84626,-54.09684
2018-05-17 23:30:00+00:00,332.3463,6.3,13.13,47.84626,-54.09684
2018-05-17 23:40:00+00:00,341.9146,6.3,13.13,47.84626,-54.09684
2018-05-17 23:50:00+00:00,351.3563,6.3,13.13,47.84626,-54.09684
